| time (UTC) | temp F | wind direction | speed MPH | gust MPH | rain 1hr in | rain 24hr in | rain mn in | humidity % | barometer mb |
| 20260509064833 | 53 | 159 | 1.0 | 2.0 | 0.00 | 0.00 | 0.00 | 91 | 1004.5 |
| 20260509064331 | 54 | 228 | 2.0 | 2.0 | 0.00 | 0.00 | 0.00 | 91 | 1004.6 |
| 20260509063829 | 54 | 138 | 1.0 | 2.0 | 0.00 | 0.00 | 0.00 | 90 | 1004.8 |
| 20260509063324 | 54 | 126 | 1.0 | 3.0 | 0.00 | 0.00 | 0.00 | 90 | 1004.7 |
| 20260509062822 | 54 | 203 | 3.0 | 6.0 | 0.00 | 0.00 | 0.00 | 90 | 1004.6 |
| 20260509062319 | 54 | 133 | 1.0 | 3.0 | 0.00 | 0.00 | 0.00 | 90 | 1004.6 |
| 20260509061816 | 54 | 253 | 2.0 | 3.0 | 0.00 | 0.00 | 0.00 | 90 | 1004.8 |
| 20260509061314 | 54 | 101 | 2.0 | 3.0 | 0.00 | 0.00 | 0.00 | 90 | 1004.8 |
| 20260509060811 | 54 | 139 | 1.0 | 2.0 | 0.00 | 0.00 | 0.00 | 90 | 1005.0 |
| 20260509060308 | 54 | 251 | 0.0 | 5.0 | 0.00 | 0.00 | 0.00 | 89 | 1005.1 |
| 20260509055803 | 54 | 147 | 1.0 | 5.0 | 0.00 | 0.00 | 0.00 | 90 | 1004.9 |
| 20260509055259 | 54 | 118 | 0.0 | 2.0 | 0.00 | 0.00 | 0.00 | 89 | 1005.0 |
| 20260509054755 | 54 | 143 | 1.0 | 5.0 | 0.00 | 0.00 | 0.00 | 89 | 1005.0 |
| 20260509054252 | 54 | 181 | 1.0 | 3.0 | 0.00 | 0.00 | 0.00 | 89 | 1005.1 |
| 20260509053751 | 55 | 159 | 4.0 | 6.0 | 0.00 | 0.00 | 0.00 | 90 | 1005.2 |
| 20260509053248 | 55 | 254 | 1.0 | 3.0 | 0.00 | 0.00 | 0.00 | 90 | 1005.1 |
| 20260509052746 | 55 | 174 | 1.0 | 3.0 | 0.00 | 0.00 | 0.00 | 90 | 1005.2 |
| 20260509052243 | 55 | 96 | 2.0 | 5.0 | 0.00 | 0.00 | 0.00 | 90 | 1005.3 |
| 20260509051740 | 55 | 171 | 2.0 | 3.0 | 0.00 | 0.00 | 0.00 | 90 | 1005.4 |
| 20260509051239 | 55 | 172 | 2.0 | 3.0 | 0.00 | 0.00 | 0.00 | 89 | 1005.0 |
| 20260509050735 | 55 | 97 | 0.0 | 3.0 | 0.00 | 0.00 | 0.00 | 89 | 1005.0 |
| 20260509050231 | 55 | 245 | 2.0 | 2.0 | 0.00 | 0.00 | 0.00 | 89 | 1004.9 |
| 20260509045729 | 55 | 136 | 3.0 | 5.0 | 0.00 | 0.00 | 0.00 | 89 | 1005.0 |
| 20260509045225 | 55 | 143 | 1.0 | 2.0 | 0.00 | 0.00 | 0.00 | 88 | 1005.2 |
| 20260509044723 | 55 | 259 | 2.0 | 3.0 | 0.00 | 0.00 | 0.00 | 87 | 1005.0 |
| 20260509044221 | 56 | 320 | 2.0 | 2.0 | 0.00 | 0.00 | 0.00 | 87 | 1005.1 |
| 20260509043716 | 56 | 192 | 3.0 | 5.0 | 0.00 | 0.00 | 0.00 | 86 | 1005.1 |
| 20260509043213 | 56 | 109 | 2.0 | 3.0 | 0.00 | 0.00 | 0.00 | 86 | 1005.1 |
| 20260509042709 | 56 | 45 | 2.0 | 3.0 | 0.00 | 0.00 | 0.00 | 85 | 1005.2 |
| 20260509042205 | 56 | 260 | 4.0 | 5.0 | 0.00 | 0.00 | 0.00 | 84 | 1005.3 |
| 20260509041702 | 56 | 29 | 1.0 | 2.0 | 0.00 | 0.00 | 0.00 | 84 | 1005.2 |
| 20260509041200 | 56 | 107 | 1.0 | 2.0 | 0.00 | 0.00 | 0.00 | 83 | 1005.2 |
| 20260509040658 | 57 | 257 | 2.0 | 3.0 | 0.00 | 0.00 | 0.00 | 82 | 1005.3 |
| 20260509040154 | 57 | 123 | 0.0 | 2.0 | 0.00 | 0.00 | 0.00 | 81 | 1005.2 |
| 20260509035651 | 57 | 174 | 1.0 | 3.0 | 0.00 | 0.00 | 0.00 | 80 | 1005.1 |
| 20260509035148 | 58 | 174 | 3.0 | 5.0 | 0.00 | 0.00 | 0.00 | 79 | 1005.4 |
| 20260509034645 | 57 | 218 | 3.0 | 8.0 | 0.00 | 0.00 | 0.00 | 78 | 1005.4 |
| 20260509034142 | 58 | 249 | 2.0 | 6.0 | 0.00 | 0.00 | 0.00 | 77 | 1005.5 |
| 20260509033639 | 58 | 169 | 4.0 | 6.0 | 0.00 | 0.00 | 0.00 | 76 | 1005.2 |
| 20260509033136 | 58 | 321 | 2.0 | 5.0 | 0.00 | 0.00 | 0.00 | 76 | 1005.3 |
| 20260509032634 | 58 | 311 | 3.0 | 7.0 | 0.00 | 0.00 | 0.00 | 75 | 1005.3 |
| 20260509032130 | 58 | 251 | 4.0 | 6.0 | 0.00 | 0.00 | 0.00 | 75 | 1005.3 |
| 20260509031628 | 58 | 231 | 2.0 | 3.0 | 0.00 | 0.00 | 0.00 | 75 | 1005.3 |
| 20260509031125 | 58 | 292 | 3.0 | 3.0 | 0.00 | 0.00 | 0.00 | 75 | 1005.4 |
| 20260509030624 | 59 | 163 | 3.0 | 3.0 | 0.00 | 0.00 | 0.00 | 75 | 1005.4 |
| 20260509030120 | 59 | 138 | 1.0 | 2.0 | 0.00 | 0.00 | 0.00 | 74 | 1005.4 |
| 20260509025616 | 59 | 241 | 3.0 | 3.0 | 0.00 | 0.00 | 0.00 | 73 | 1005.2 |
| 20260509025112 | 59 | 115 | 2.0 | 5.0 | 0.00 | 0.00 | 0.00 | 72 | 1005.4 |
| 20260509024608 | 59 | 160 | 2.0 | 5.0 | 0.00 | 0.00 | 0.00 | 71 | 1005.4 |
| 20260509024104 | 59 | 118 | 2.0 | 5.0 | 0.00 | 0.00 | 0.00 | 70 | 1005.5 |
| 20260509023602 | 59 | 251 | 3.0 | 5.0 | 0.00 | 0.00 | 0.00 | 67 | 1005.3 |
| 20260509023059 | 60 | 310 | 2.0 | 2.0 | 0.00 | 0.00 | 0.00 | 65 | 1005.2 |
| 20260509022555 | 60 | 131 | 1.0 | 2.0 | 0.00 | 0.00 | 0.00 | 63 | 1005.2 |
| 20260509022053 | 60 | 265 | 1.0 | 2.0 | 0.00 | 0.00 | 0.00 | 63 | 1005.4 |
| 20260509021550 | 60 | 82 | 0.0 | 1.0 | 0.00 | 0.00 | 0.00 | 63 | 1005.3 |
| 20260509021047 | 60 | 100 | 0.0 | 1.0 | 0.00 | 0.00 | 0.00 | 62 | 1005.4 |
| 20260509020545 | 60 | 161 | 2.0 | 2.0 | 0.00 | 0.00 | 0.00 | 61 | 1005.0 |
| 20260509020042 | 60 | 120 | 0.0 | 2.0 | 0.00 | 0.00 | 0.00 | 61 | 1005.3 |
| 20260509015541 | 60 | 125 | 0.0 | 0.0 | 0.00 | 0.00 | 0.00 | 61 | 1005.3 |
| 20260509015037 | 61 | 141 | 0.0 | 1.0 | 0.00 | 0.00 | 0.00 | 60 | 1005.0 |
| 20260509014534 | 61 | 113 | 0.0 | 3.0 | 0.00 | 0.00 | 0.00 | 60 | 1005.2 |
| 20260509014030 | 61 | 125 | 0.0 | 1.0 | 0.00 | 0.00 | 0.00 | 59 | 1005.2 |
| 20260509013528 | 61 | 118 | 0.0 | 1.0 | 0.00 | 0.00 | 0.00 | 59 | 1005.0 |
| 20260509013023 | 62 | 112 | 0.0 | 2.0 | 0.00 | 0.00 | 0.00 | 59 | 1005.1 |
| 20260509012520 | 62 | 104 | 0.0 | 1.0 | 0.00 | 0.00 | 0.00 | 59 | 1005.3 |
| 20260509012017 | 62 | 126 | 1.0 | 1.0 | 0.00 | 0.00 | 0.00 | 58 | 1005.1 |
| 20260509011515 | 62 | 147 | 1.0 | 2.0 | 0.00 | 0.00 | 0.00 | 58 | 1005.1 |
| 20260509011012 | 63 | 137 | 1.0 | 2.0 | 0.00 | 0.00 | 0.00 | 57 | 1004.9 |
| 20260509010509 | 63 | 151 | 1.0 | 2.0 | 0.00 | 0.00 | 0.00 | 56 | 1004.9 |
| 20260509010005 | 63 | 118 | 1.0 | 5.0 | 0.00 | 0.00 | 0.00 | 55 | 1004.9 |
| 20260509005504 | 64 | 120 | 2.0 | 6.0 | 0.00 | 0.00 | 0.00 | 54 | 1004.9 |
| 20260509004958 | 64 | 228 | 1.0 | 5.0 | 0.00 | 0.00 | 0.00 | 55 | 1004.9 |
| 20260509004455 | 64 | 187 | 2.0 | 3.0 | 0.00 | 0.00 | 0.00 | 55 | 1005.0 |
| 20260509003952 | 64 | 146 | 2.0 | 5.0 | 0.00 | 0.00 | 0.00 | 54 | 1005.1 |
| 20260509003451 | 64 | 188 | 2.0 | 2.0 | 0.00 | 0.00 | 0.00 | 54 | 1005.1 |
| 20260509002947 | 65 | 125 | 2.0 | 5.0 | 0.00 | 0.00 | 0.00 | 53 | 1005.0 |
| 20260509002445 | 65 | 211 | 2.0 | 3.0 | 0.00 | 0.00 | 0.00 | 52 | 1005.2 |
| 20260509001942 | 65 | 206 | 1.0 | 3.0 | 0.00 | 0.00 | 0.00 | 52 | 1005.2 |
| 20260509001438 | 65 | 224 | 5.0 | 7.0 | 0.00 | 0.00 | 0.00 | 52 | 1005.2 |
| 20260509000935 | 65 | 195 | 1.0 | 3.0 | 0.00 | 0.00 | 0.00 | 51 | 1005.3 |
| 20260509000434 | 65 | 109 | 0.0 | 5.0 | 0.00 | 0.00 | 0.00 | 51 | 1005.4 |
| 20260508235929 | 65 | 124 | 0.0 | 1.0 | 0.00 | 0.00 | 0.00 | 52 | 1005.1 |
| 20260508235427 | 65 | 126 | 1.0 | 1.0 | 0.00 | 0.00 | 0.00 | 51 | 1005.1 |
| 20260508234923 | 65 | 174 | 1.0 | 2.0 | 0.00 | 0.00 | 0.00 | 52 | 1005.4 |
| 20260508234420 | 65 | 197 | 1.0 | 2.0 | 0.00 | 0.00 | 0.00 | 51 | 1005.3 |
| 20260508233918 | 65 | 127 | 2.0 | 2.0 | 0.00 | 0.00 | 0.00 | 49 | 1005.4 |
| 20260508233417 | 66 | 118 | 3.0 | 7.0 | 0.00 | 0.00 | 0.00 | 50 | 1005.3 |
| 20260508232914 | 66 | 106 | 0.0 | 1.0 | 0.00 | 0.00 | 0.00 | 51 | 1005.2 |
| 20260508232410 | 66 | 105 | 1.0 | 1.0 | 0.00 | 0.00 | 0.00 | 49 | 1005.5 |
| 20260508231908 | 66 | 138 | 3.0 | 3.0 | 0.00 | 0.00 | 0.00 | 48 | 1005.1 |
| 20260508231405 | 67 | 109 | 2.0 | 5.0 | 0.00 | 0.00 | 0.00 | 49 | 1005.2 |
| 20260508230902 | 66 | 212 | 2.0 | 2.0 | 0.00 | 0.00 | 0.00 | 50 | 1005.4 |
| 20260508230359 | 66 | 176 | 3.0 | 5.0 | 0.00 | 0.00 | 0.00 | 50 | 1005.3 |
| 20260508225856 | 66 | 180 | 1.0 | 5.0 | 0.00 | 0.00 | 0.00 | 51 | 1005.3 |
| 20260508225352 | 67 | 121 | 0.0 | 3.0 | 0.00 | 0.00 | 0.00 | 49 | 1005.5 |
| 20260508224850 | 67 | 162 | 1.0 | 5.0 | 0.00 | 0.00 | 0.00 | 48 | 1005.3 |
| 20260508224347 | 67 | 264 | 3.0 | 5.0 | 0.00 | 0.00 | 0.00 | 48 | 1005.4 |
| 20260508223845 | 68 | 172 | 2.0 | 3.0 | 0.00 | 0.00 | 0.00 | 47 | 1005.6 |
| 20260508223342 | 68 | 231 | 3.0 | 3.0 | 0.00 | 0.00 | 0.00 | 47 | 1005.5 |
| 20260508222839 | 69 | 136 | 3.0 | 5.0 | 0.00 | 0.00 | 0.00 | 46 | 1005.5 |
| 20260508222337 | 69 | 294 | 5.0 | 6.0 | 0.00 | 0.00 | 0.00 | 46 | 1005.6 |
| 20260508221833 | 69 | 235 | 2.0 | 5.0 | 0.00 | 0.00 | 0.00 | 45 | 1005.3 |
| 20260508221328 | 70 | 127 | 2.0 | 3.0 | 0.00 | 0.00 | 0.00 | 45 | 1005.4 |
| 20260508220825 | 69 | 268 | 2.0 | 3.0 | 0.00 | 0.00 | 0.00 | 46 | 1005.5 |
| 20260508220322 | 69 | 61 | 1.0 | 3.0 | 0.00 | 0.00 | 0.00 | 48 | 1005.6 |
| 20260508215818 | 68 | 168 | 2.0 | 6.0 | 0.00 | 0.00 | 0.00 | 49 | 1005.7 |
| 20260508215315 | 69 | 169 | 2.0 | 6.0 | 0.00 | 0.00 | 0.00 | 48 | 1005.6 |
| 20260508214812 | 69 | 131 | 1.0 | 3.0 | 0.00 | 0.00 | 0.00 | 48 | 1005.6 |
| 20260508214309 | 69 | 192 | 3.0 | 5.0 | 0.00 | 0.00 | 0.00 | 48 | 1005.7 |
| 20260508213806 | 71 | 232 | 3.0 | 5.0 | 0.00 | 0.00 | 0.00 | 46 | 1005.8 |
| 20260508213303 | 71 | 193 | 2.0 | 3.0 | 0.00 | 0.00 | 0.00 | 44 | 1005.7 |
| 20260508212759 | 70 | 118 | 0.0 | 3.0 | 0.00 | 0.00 | 0.00 | 49 | 1005.7 |
| 20260508212255 | 70 | 106 | 1.0 | 3.0 | 0.00 | 0.00 | 0.00 | 46 | 1006.0 |
| 20260508211751 | 69 | 152 | 1.0 | 2.0 | 0.00 | 0.00 | 0.00 | 50 | 1005.8 |
| 20260508211246 | 69 | 298 | 3.0 | 6.0 | 0.00 | 0.00 | 0.00 | 48 | 1005.9 |
| 20260508210745 | 68 | 95 | 0.0 | 2.0 | 0.00 | 0.00 | 0.00 | 51 | 1005.8 |
| 20260508210241 | 68 | 129 | 1.0 | 2.0 | 0.00 | 0.00 | 0.00 | 49 | 1005.9 |
| 20260508205738 | 67 | 194 | 3.0 | 6.0 | 0.00 | 0.00 | 0.00 | 48 | 1005.8 |
| 20260508205234 | 68 | 273 | 4.0 | 6.0 | 0.00 | 0.00 | 0.00 | 48 | 1005.9 |
| 20260508204731 | 69 | 179 | 2.0 | 5.0 | 0.00 | 0.00 | 0.00 | 49 | 1005.9 |
| 20260508204227 | 69 | 147 | 2.0 | 2.0 | 0.00 | 0.00 | 0.00 | 45 | 1005.8 |
| 20260508203723 | 68 | 153 | 1.0 | 5.0 | 0.00 | 0.00 | 0.00 | 48 | 1006.0 |
| 20260508203220 | 68 | 310 | 3.0 | 5.0 | 0.00 | 0.00 | 0.00 | 44 | 1006.2 |
| 20260508202716 | 68 | 138 | 1.0 | 3.0 | 0.00 | 0.00 | 0.00 | 44 | 1006.4 |
| 20260508202213 | 69 | 271 | 2.0 | 3.0 | 0.00 | 0.00 | 0.00 | 45 | 1006.2 |
| 20260508201710 | 68 | 174 | 4.0 | 6.0 | 0.00 | 0.00 | 0.00 | 45 | 1006.4 |
| 20260508201207 | 66 | 189 | 2.0 | 5.0 | 0.00 | 0.00 | 0.00 | 47 | 1006.4 |
| 20260508200704 | 67 | 83 | 2.0 | 5.0 | 0.00 | 0.00 | 0.00 | 47 | 1006.2 |
| 20260508200159 | 69 | 171 | 3.0 | 3.0 | 0.00 | 0.00 | 0.00 | 43 | 1006.7 |
| 20260508195656 | 70 | 287 | 5.0 | 7.0 | 0.00 | 0.00 | 0.00 | 44 | 1006.6 |
| 20260508195153 | 67 | 57 | 2.0 | 5.0 | 0.00 | 0.00 | 0.00 | 47 | 1006.8 |
| 20260508194649 | 68 | 131 | 1.0 | 5.0 | 0.00 | 0.00 | 0.00 | 48 | 1006.9 |
| 20260508194146 | 69 | 104 | 0.0 | 0.0 | 0.00 | 0.00 | 0.00 | 49 | 1007.0 |
| 20260508193643 | 69 | 96 | 0.0 | 1.0 | 0.00 | 0.00 | 0.00 | 46 | 1007.1 |
| 20260508193140 | 68 | 192 | 1.0 | 5.0 | 0.00 | 0.00 | 0.00 | 48 | 1007.1 |
| 20260508192637 | 68 | 100 | 1.0 | 3.0 | 0.00 | 0.00 | 0.00 | 49 | 1006.9 |
| 20260508192134 | 66 | 195 | 1.0 | 3.0 | 0.00 | 0.00 | 0.00 | 53 | 1007.2 |
| 20260508191631 | 65 | 3 | 1.0 | 2.0 | 0.00 | 0.00 | 0.00 | 55 | 1007.5 |
| 20260508191127 | 67 | 163 | 1.0 | 5.0 | 0.00 | 0.00 | 0.00 | 50 | 1007.3 |
| 20260508190625 | 67 | 112 | 1.0 | 2.0 | 0.00 | 0.00 | 0.00 | 50 | 1007.1 |
| 20260508190121 | 67 | 93 | 0.0 | 2.0 | 0.00 | 0.00 | 0.00 | 53 | 1007.4 |
| 20260508185618 | 66 | 283 | 2.0 | 3.0 | 0.00 | 0.00 | 0.00 | 50 | 1007.4 |
| 20260508185115 | 66 | 257 | 3.0 | 3.0 | 0.00 | 0.00 | 0.00 | 53 | 1007.6 |
| 20260508184612 | 65 | 135 | 3.0 | 6.0 | 0.00 | 0.00 | 0.00 | 52 | 1007.5 |
| 20260508184110 | 66 | 106 | 1.0 | 2.0 | 0.00 | 0.00 | 0.00 | 51 | 1007.7 |
| 20260508183606 | 66 | 95 | 0.0 | 2.0 | 0.00 | 0.00 | 0.00 | 52 | 1007.7 |
| 20260508183102 | 65 | 245 | 2.0 | 2.0 | 0.00 | 0.00 | 0.00 | 55 | 1007.6 |
| 20260508182558 | 66 | 278 | 3.0 | 3.0 | 0.00 | 0.00 | 0.00 | 54 | 1008.0 |
| 20260508182055 | 65 | 109 | 0.0 | 3.0 | 0.00 | 0.00 | 0.00 | 56 | 1007.8 |
| 20260508181555 | 65 | 170 | 0.0 | 1.0 | 0.00 | 0.00 | 0.00 | 55 | 1008.1 |
| 20260508181054 | 66 | 108 | 1.0 | 2.0 | 0.00 | 0.00 | 0.00 | 54 | 1007.9 |
| 20260508180550 | 64 | 103 | 1.0 | 2.0 | 0.00 | 0.00 | 0.00 | 56 | 1007.9 |
| 20260508180046 | 64 | 159 | 0.0 | 1.0 | 0.00 | 0.00 | 0.00 | 59 | 1007.9 |
| 20260508175543 | 66 | 120 | 0.0 | 3.0 | 0.00 | 0.00 | 0.00 | 55 | 1008.2 |
| 20260508175041 | 66 | 177 | 1.0 | 3.0 | 0.00 | 0.00 | 0.00 | 57 | 1008.4 |
| 20260508174538 | 66 | 275 | 4.0 | 5.0 | 0.00 | 0.00 | 0.00 | 58 | 1008.3 |
| 20260508174035 | 65 | 168 | 1.0 | 3.0 | 0.00 | 0.00 | 0.00 | 55 | 1008.5 |
| 20260508173532 | 65 | 129 | 2.0 | 2.0 | 0.00 | 0.00 | 0.00 | 59 | 1008.5 |
| 20260508173027 | 67 | 207 | 1.0 | 3.0 | 0.00 | 0.00 | 0.00 | 57 | 1008.4 |
| 20260508172525 | 67 | 102 | 1.0 | 1.0 | 0.00 | 0.00 | 0.00 | 56 | 1008.8 |
| 20260508172021 | 66 | 134 | 1.0 | 1.0 | 0.00 | 0.00 | 0.00 | 57 | 1008.6 |
| 20260508171518 | 66 | 234 | 1.0 | 3.0 | 0.00 | 0.00 | 0.00 | 58 | 1008.8 |
| 20260508171014 | 67 | 118 | 1.0 | 2.0 | 0.00 | 0.00 | 0.00 | 57 | 1008.8 |
| 20260508170512 | 67 | 103 | 0.0 | 1.0 | 0.00 | 0.00 | 0.00 | 61 | 1009.0 |
| 20260508170009 | 66 | 135 | 1.0 | 2.0 | 0.00 | 0.00 | 0.00 | 61 | 1008.9 |
| 20260508165507 | 65 | 148 | 2.0 | 3.0 | 0.00 | 0.00 | 0.00 | 60 | 1008.9 |
| 20260508165004 | 65 | 99 | 1.0 | 2.0 | 0.00 | 0.00 | 0.00 | 60 | 1009.1 |
| 20260508164459 | 66 | 90 | 2.0 | 2.0 | 0.00 | 0.00 | 0.00 | 59 | 1009.3 |
| 20260508163956 | 64 | 157 | 1.0 | 2.0 | 0.00 | 0.00 | 0.00 | 60 | 1009.3 |
| 20260508163454 | 64 | 164 | 2.0 | 3.0 | 0.00 | 0.00 | 0.00 | 61 | 1009.3 |
| 20260508162949 | 63 | 131 | 1.0 | 2.0 | 0.00 | 0.00 | 0.00 | 61 | 1009.7 |
| 20260508162447 | 64 | 204 | 1.0 | 3.0 | 0.00 | 0.00 | 0.00 | 62 | 1009.7 |
| 20260508161944 | 64 | 97 | 1.0 | 2.0 | 0.00 | 0.00 | 0.00 | 62 | 1009.6 |
| 20260508161441 | 63 | 98 | 1.0 | 1.0 | 0.00 | 0.00 | 0.00 | 62 | 1009.5 |
| 20260508160938 | 63 | 180 | 1.0 | 3.0 | 0.00 | 0.00 | 0.00 | 61 | 1009.8 |
| 20260508160438 | 62 | 114 | 1.0 | 2.0 | 0.00 | 0.00 | 0.00 | 64 | 1009.8 |
| 20260508155933 | 63 | 142 | 3.0 | 5.0 | 0.00 | 0.00 | 0.00 | 64 | 1009.6 |
| 20260508155430 | 64 | 188 | 2.0 | 2.0 | 0.00 | 0.00 | 0.00 | 61 | 1009.6 |
| 20260508154927 | 63 | 83 | 0.0 | 1.0 | 0.00 | 0.00 | 0.00 | 61 | 1009.7 |
| 20260508154424 | 62 | 245 | 2.0 | 2.0 | 0.00 | 0.00 | 0.00 | 65 | 1009.8 |
| 20260508153921 | 63 | 114 | 0.0 | 1.0 | 0.00 | 0.00 | 0.00 | 63 | 1010.0 |
| 20260508153418 | 61 | 74 | 2.0 | 2.0 | 0.00 | 0.00 | 0.00 | 65 | 1010.0 |
| 20260508152914 | 61 | 111 | 1.0 | 2.0 | 0.00 | 0.00 | 0.00 | 65 | 1010.0 |
| 20260508152411 | 61 | 230 | 2.0 | 5.0 | 0.00 | 0.00 | 0.00 | 68 | 1010.0 |
| 20260508151908 | 61 | 129 | 1.0 | 3.0 | 0.00 | 0.00 | 0.00 | 67 | 1010.1 |
| 20260508151404 | 61 | 142 | 1.0 | 2.0 | 0.00 | 0.00 | 0.00 | 65 | 1010.0 |
| 20260508150901 | 59 | 260 | 2.0 | 3.0 | 0.00 | 0.00 | 0.00 | 68 | 1010.0 |
| 20260508150357 | 59 | 132 | 0.0 | 2.0 | 0.00 | 0.00 | 0.00 | 69 | 1010.0 |
| 20260508145854 | 59 | 108 | 1.0 | 3.0 | 0.00 | 0.00 | 0.00 | 68 | 1010.4 |
| 20260508145350 | 59 | 151 | 1.0 | 2.0 | 0.00 | 0.00 | 0.00 | 68 | 1010.1 |
| 20260508144847 | 58 | 155 | 1.0 | 1.0 | 0.00 | 0.00 | 0.00 | 69 | 1010.4 |
| 20260508144345 | 58 | 194 | 0.0 | 2.0 | 0.00 | 0.00 | 0.00 | 70 | 1010.3 |
| 20260508143842 | 59 | 189 | 3.0 | 3.0 | 0.00 | 0.00 | 0.00 | 66 | 1010.5 |
| 20260508143339 | 59 | 81 | 0.0 | 1.0 | 0.00 | 0.00 | 0.00 | 66 | 1010.4 |
| 20260508142836 | 59 | 108 | 0.0 | 1.0 | 0.00 | 0.00 | 0.00 | 66 | 1010.5 |
| 20260508142332 | 58 | 79 | 1.0 | 1.0 | 0.00 | 0.00 | 0.00 | 65 | 1010.4 |
| 20260508141829 | 56 | 101 | 0.0 | 1.0 | 0.00 | 0.00 | 0.00 | 69 | 1010.3 |
| 20260508141326 | 56 | 117 | 0.0 | 1.0 | 0.00 | 0.00 | 0.00 | 71 | 1010.4 |
| 20260508140823 | 56 | 95 | 2.0 | 2.0 | 0.00 | 0.00 | 0.00 | 69 | 1010.5 |
| 20260508140320 | 55 | 80 | 0.0 | 1.0 | 0.00 | 0.00 | 0.00 | 71 | 1010.5 |
| 20260508135816 | 55 | 63 | 1.0 | 2.0 | 0.00 | 0.00 | 0.00 | 71 | 1010.7 |
| 20260508135313 | 54 | 104 | 1.0 | 2.0 | 0.00 | 0.00 | 0.00 | 72 | 1010.4 |
| 20260508134808 | 53 | 87 | 0.0 | 2.0 | 0.00 | 0.00 | 0.00 | 77 | 1010.7 |
| 20260508134305 | 53 | 96 | 0.0 | 1.0 | 0.00 | 0.00 | 0.00 | 79 | 1010.3 |
| 20260508133802 | 52 | 186 | 1.0 | 3.0 | 0.00 | 0.00 | 0.00 | 80 | 1010.5 |
| 20260508133300 | 52 | 97 | 0.0 | 1.0 | 0.00 | 0.00 | 0.00 | 81 | 1010.5 |
| 20260508132757 | 51 | 142 | 0.0 | 1.0 | 0.00 | 0.00 | 0.00 | 83 | 1010.4 |
| 20260508132254 | 51 | 76 | 1.0 | 1.0 | 0.00 | 0.00 | 0.00 | 85 | 1010.5 |
| 20260508131750 | 50 | 94 | 1.0 | 1.0 | 0.00 | 0.00 | 0.00 | 86 | 1010.4 |
| 20260508131247 | 49 | 88 | 1.0 | 1.0 | 0.00 | 0.00 | 0.00 | 87 | 1010.4 |
| 20260508130743 | 49 | 85 | 0.0 | 1.0 | 0.00 | 0.00 | 0.00 | 88 | 1010.3 |
| 20260508130241 | 48 | 89 | 0.0 | 2.0 | 0.00 | 0.00 | 0.00 | 88 | 1010.3 |
| 20260508125736 | 48 | 92 | 1.0 | 1.0 | 0.00 | 0.00 | 0.00 | 90 | 1010.5 |
| 20260508125232 | 48 | 97 | 1.0 | 1.0 | 0.00 | 0.00 | 0.00 | 90 | 1010.3 |
| 20260508124731 | 47 | 102 | 1.0 | 3.0 | 0.00 | 0.00 | 0.00 | 90 | 1010.7 |
| 20260508124228 | 47 | 85 | 1.0 | 1.0 | 0.00 | 0.00 | 0.00 | 92 | 1010.3 |
| 20260508123726 | 46 | 87 | 1.0 | 1.0 | 0.00 | 0.00 | 0.00 | 93 | 1010.2 |
| 20260508123224 | 46 | 122 | 1.0 | 2.0 | 0.00 | 0.00 | 0.00 | 95 | 1010.3 |
| 20260508122719 | 45 | 86 | 0.0 | 1.0 | 0.00 | 0.00 | 0.00 | 96 | 1010.4 |
| 20260508122217 | 45 | 85 | 0.0 | 1.0 | 0.00 | 0.00 | 0.00 | 96 | 1010.5 |
| 20260508121714 | 44 | 98 | 0.0 | 1.0 | 0.00 | 0.00 | 0.00 | 97 | 1010.7 |
| 20260508121213 | 44 | 108 | 0.0 | 0.0 | 0.00 | 0.00 | 0.00 | 98 | 1010.7 |
| 20260508120709 | 44 | 80 | 0.0 | 1.0 | 0.00 | 0.00 | 0.00 | 98 | 1010.4 |
| 20260508120208 | 43 | 67 | 1.0 | 1.0 | 0.00 | 0.00 | 0.00 | 98 | 1010.4 |
| 20260508115705 | 43 | 61 | 0.0 | 3.0 | 0.00 | 0.00 | 0.00 | 99 | 1010.3 |
| 20260508115202 | 43 | 80 | 0.0 | 0.0 | 0.00 | 0.00 | 0.00 | 99 | 1010.4 |
| 20260508114659 | 43 | 88 | 0.0 | 0.0 | 0.00 | 0.00 | 0.00 | 99 | 1010.3 |
| 20260508114155 | 43 | 92 | 0.0 | 0.0 | 0.00 | 0.00 | 0.00 | 99 | 1010.3 |
| 20260508113652 | 43 | 89 | 0.0 | 0.0 | 0.00 | 0.00 | 0.00 | 99 | 1010.3 |
| 20260508113151 | 43 | 90 | 0.0 | 0.0 | 0.00 | 0.00 | 0.00 | 99 | 1010.5 |
| 20260508112646 | 43 | 91 | 0.0 | 0.0 | 0.00 | 0.00 | 0.00 | 99 | 1010.2 |
| 20260508112143 | 43 | 89 | 0.0 | 0.0 | 0.00 | 0.00 | 0.00 | 99 | 1010.2 |
| 20260508111640 | 42 | 93 | 0.0 | 0.0 | 0.00 | 0.00 | 0.00 | 99 | 1010.2 |
| 20260508111137 | 42 | 97 | 0.0 | 0.0 | 0.00 | 0.00 | 0.00 | 99 | 1010.3 |
| 20260508110635 | 42 | 90 | 0.0 | 0.0 | 0.00 | 0.00 | 0.00 | 99 | 1010.1 |
| 20260508110131 | 42 | 89 | 0.0 | 0.0 | 0.00 | 0.00 | 0.00 | 99 | 1010.0 |
| 20260508105626 | 42 | 91 | 0.0 | 0.0 | 0.00 | 0.00 | 0.00 | 99 | 1010.0 |
| 20260508105123 | 41 | 82 | 0.0 | 0.0 | 0.00 | 0.00 | 0.00 | 99 | 1009.9 |
| 20260508104621 | 41 | 86 | 0.0 | 0.0 | 0.00 | 0.00 | 0.00 | 99 | 1010.1 |
| 20260508104117 | 41 | 84 | 0.0 | 0.0 | 0.00 | 0.00 | 0.00 | 99 | 1009.9 |
| 20260508103614 | 41 | 92 | 0.0 | 0.0 | 0.00 | 0.00 | 0.00 | 99 | 1010.5 |
| 20260508103112 | 40 | 99 | 0.0 | 0.0 | 0.00 | 0.00 | 0.00 | 99 | 1010.2 |
| 20260508102609 | 40 | 100 | 0.0 | 0.0 | 0.00 | 0.00 | 0.00 | 99 | 1010.1 |
| 20260508102107 | 40 | 98 | 0.0 | 0.0 | 0.00 | 0.00 | 0.00 | 99 | 1010.4 |
| 20260508101604 | 40 | 118 | 0.0 | 0.0 | 0.00 | 0.00 | 0.00 | 99 | 1010.4 |
| 20260508101101 | 40 | 90 | 0.0 | 0.0 | 0.00 | 0.00 | 0.00 | 99 | 1010.3 |
| 20260508100559 | 40 | 86 | 0.0 | 0.0 | 0.00 | 0.00 | 0.00 | 99 | 1010.2 |
| 20260508100055 | 40 | 87 | 0.0 | 0.0 | 0.00 | 0.00 | 0.00 | 99 | 1010.1 |
| 20260508095553 | 39 | 83 | 0.0 | 0.0 | 0.00 | 0.00 | 0.00 | 99 | 1010.3 |
| 20260508095049 | 39 | 97 | 0.0 | 0.0 | 0.00 | 0.00 | 0.00 | 99 | 1010.3 |
| 20260508094547 | 39 | 97 | 0.0 | 0.0 | 0.00 | 0.00 | 0.00 | 99 | 1010.2 |
| 20260508094044 | 39 | 96 | 0.0 | 0.0 | 0.00 | 0.00 | 0.00 | 99 | 1010.4 |
| 20260508093541 | 39 | 100 | 0.0 | 0.0 | 0.00 | 0.00 | 0.00 | 99 | 1010.4 |
| 20260508093038 | 39 | 102 | 0.0 | 0.0 | 0.00 | 0.00 | 0.00 | 99 | 1010.4 |
| 20260508092535 | 39 | 102 | 0.0 | 0.0 | 0.00 | 0.00 | 0.00 | 98 | 1010.4 |
| 20260508092034 | 39 | 102 | 0.0 | 0.0 | 0.00 | 0.00 | 0.00 | 98 | 1010.4 |
| 20260508091531 | 40 | 116 | 0.0 | 0.0 | 0.00 | 0.00 | 0.00 | 98 | 1010.4 |
| 20260508091028 | 40 | 96 | 0.0 | 0.0 | 0.00 | 0.00 | 0.00 | 98 | 1010.3 |
| 20260508090526 | 40 | 85 | 0.0 | 0.0 | 0.00 | 0.00 | 0.00 | 98 | 1010.3 |
| 20260508090022 | 40 | 94 | 0.0 | 0.0 | 0.00 | 0.00 | 0.00 | 97 | 1010.5 |
| 20260508085519 | 40 | 95 | 0.0 | 0.0 | 0.00 | 0.00 | 0.00 | 97 | 1010.5 |
| 20260508085016 | 40 | 95 | 0.0 | 0.0 | 0.00 | 0.00 | 0.00 | 97 | 1010.7 |
| 20260508084513 | 40 | 101 | 0.0 | 0.0 | 0.00 | 0.00 | 0.00 | 97 | 1010.6 |
| 20260508084010 | 40 | 105 | 0.0 | 0.0 | 0.00 | 0.00 | 0.00 | 97 | 1010.6 |
| 20260508083507 | 40 | 103 | 0.0 | 0.0 | 0.00 | 0.00 | 0.00 | 97 | 1010.6 |
| 20260508083003 | 40 | 96 | 0.0 | 0.0 | 0.00 | 0.00 | 0.00 | 96 | 1010.7 |
| 20260508082459 | 41 | 90 | 0.0 | 0.0 | 0.00 | 0.00 | 0.00 | 96 | 1010.5 |
| 20260508081957 | 41 | 79 | 0.0 | 0.0 | 0.00 | 0.00 | 0.00 | 96 | 1010.5 |
| 20260508081454 | 41 | 116 | 0.0 | 0.0 | 0.00 | 0.00 | 0.00 | 96 | 1010.7 |
| 20260508080950 | 42 | 96 | 0.0 | 0.0 | 0.00 | 0.00 | 0.00 | 96 | 1010.7 |
| 20260508080449 | 42 | 81 | 0.0 | 0.0 | 0.00 | 0.00 | 0.00 | 96 | 1010.7 |
| 20260508075945 | 41 | 88 | 0.0 | 0.0 | 0.00 | 0.00 | 0.00 | 96 | 1010.8 |
| 20260508075442 | 41 | 94 | 0.0 | 0.0 | 0.00 | 0.00 | 0.00 | 96 | 1010.7 |
| 20260508074939 | 41 | 91 | 0.0 | 0.0 | 0.00 | 0.00 | 0.00 | 96 | 1010.5 |
| 20260508074437 | 41 | 95 | 0.0 | 0.0 | 0.00 | 0.00 | 0.00 | 96 | 1010.8 |
| 20260508073934 | 41 | 90 | 0.0 | 0.0 | 0.00 | 0.00 | 0.00 | 96 | 1010.8 |
| 20260508073431 | 42 | 90 | 0.0 | 0.0 | 0.00 | 0.00 | 0.00 | 96 | 1010.9 |
| 20260508072928 | 42 | 95 | 0.0 | 0.0 | 0.00 | 0.00 | 0.00 | 96 | 1010.9 |
| 20260508072424 | 42 | 96 | 0.0 | 0.0 | 0.00 | 0.00 | 0.00 | 96 | 1010.9 |
| 20260508071922 | 42 | 127 | 0.0 | 0.0 | 0.00 | 0.00 | 0.00 | 95 | 1011.0 |
| 20260508071420 | 42 | 91 | 0.0 | 0.0 | 0.00 | 0.00 | 0.00 | 95 | 1011.0 |
| 20260508070917 | 42 | 95 | 0.0 | 0.0 | 0.00 | 0.00 | 0.00 | 95 | 1011.1 |
| 20260508070415 | 42 | 100 | 0.0 | 0.0 | 0.00 | 0.00 | 0.00 | 95 | 1011.1 |
| 20260508065912 | 42 | 118 | 0.0 | 0.0 | 0.00 | 0.00 | 0.00 | 95 | 1010.9 |
| 20260508065410 | 42 | 100 | 0.0 | 0.0 | 0.00 | 0.00 | 0.00 | 94 | 1011.2 |